Theta_e
310 310 310 310 310 310 310 309 310 310 310 310 311 311 311 311 312 313 314 316 315 316 315 317 315 315 315 314 316 319 313 314 316 319 320 340 339 340 342 342 342 343 343 343 343
310 310 310 310 310 310 310 310 310 310 310 310 311 311 311 312 313 316 319 318 316 318 318 318 315 315 315 314 315 314 310 314 314 318 318 330 340 344 343 345 340 336 336 344 341
310 310 310 310 310 310 310 310 310 310 310 310 311 311 311 311 313 323 321 318 317 319 318 318 317 314 314 315 315 314 312 312 316 317 318 322 344 345 343 342 339 336 340 340 340
311 311 311 310 310 310 310 310 310 310 310 310 311 311 312 312 312 320 320 318 318 316 317 318 314 315 313 313 316 313 315 315 317 319 318 316 336 347 344 345 338 336 337 339 338
310 310 311 311 310 310 310 310 310 310 310 310 312 314 313 313 314 322 320 320 318 317 316 313 314 315 314 314 314 312 313 317 318 318 318 319 334 343 347 346 342 343 341 339 337
310 310 310 311 310 310 310 310 310 310 311 312 315 315 315 319 320 322 319 318 319 320 317 316 316 317 317 315 313 316 315 316 318 317 317 323 344 346 342 345 338 338 339 338 337
309 310 310 311 311 311 310 311 311 311 313 314 314 314 315 317 321 322 320 319 319 320 320 319 319 319 319 314 318 317 315 313 315 318 318 319 339 343 342 337 337 335 335 339 338
309 310 310 311 311 311 311 311 316 318 318 316 316 317 319 322 322 321 319 319 319 319 318 318 318 317 317 318 316 314 313 313 314 315 318 318 314 341 342 338 335 334 335 341 341
310 310 310 311 311 311 312 318 322 322 323 320 319 322 324 324 322 322 318 318 318 319 319 319 319 317 316 313 311 312 313 314 315 319 316 317 316 341 340 340 340 342 345 345 342
310 310 310 311 311 312 318 323 323 324 323 324 321 321 324 325 322 322 321 320 319 320 319 320 318 311 309 309 311 313 314 314 315 317 320 319 318 341 341 339 339 341 344 345 344
310 310 311 311 312 314 323 324 321 324 320 321 322 325 326 325 323 323 321 321 320 320 319 320 315 314 312 311 312 313 314 314 316 318 320 317 317 327 339 337 337 337 335 344 343
310 310 311 311 312 315 321 323 323 323 320 321 323 323 326 327 324 323 323 320 320 318 319 318 317 318 316 315 313 314 313 314 314 317 317 318 317 319 342 337 338 337 338 344 339
311 311 312 312 314 319 324 324 321 321 320 322 326 327 327 324 323 324 322 321 319 319 318 318 320 322 322 323 325 321 322 325 317 318 319 319 316 316 330 339 347 341 341 343 339
311 311 312 313 323 322 321 321 320 322 322 326 327 326 324 324 324 325 324 323 321 320 319 321 325 323 317 317 324 324 326 326 328 317 316 316 316 317 328 328 327 328 335 342 343
312 312 312 313 315 319 322 321 322 324 334 330 324 323 323 324 325 322 324 327 324 327 324 325 322 314 314 314 318 324 325 325 326 318 317 324 317 326 327 328 325 325 326 327 338
320 319 320 320 320 323 325 324 325 328 332 327 322 321 321 322 322 321 320 325 324 324 321 323 317 314 314 315 315 315 322 323 323 316 319 325 326 327 328 326 324 324 324 327 332
320 319 320 323 322 324 325 326 329 332 323 320 320 319 318 317 317 319 316 315 316 321 318 317 317 314 314 314 314 314 320 325 327 331 326 322 327 329 326 323 323 322 323 329 333
320 319 322 323 324 324 325 325 329 322 318 318 317 319 317 316 316 319 317 314 313 314 314 314 315 313 313 313 312 312 321 326 330 331 325 324 328 330 324 321 322 321 323 327 331
318 319 324 323 324 324 326 325 320 318 315 317 318 317 316 316 315 314 315 314 314 312 312 312 313 313 312 312 311 312 312 316 321 323 324 323 324 326 321 319 318 320 321 324 327
318 324 326 319 319 322 321 324 317 316 317 317 316 316 315 314 314 312 315 314 314 313 312 315 313 315 313 313 314 313 314 314 314 324 324 325 331 327 322 319 318 320 322 324 323
317 325 328 318 320 324 321 319 316 315 316 316 316 315 315 314 315 313 314 314 314 314 314 312 311 310 312 313 315 316 316 315 313 320 323 325 325 322 320 318 319 320 322 323 320
318 323 324 319 321 318 314 319 317 316 315 316 315 316 315 315 316 316 316 315 316 315 315 314 309 313 315 315 316 317 318 316 317 318 316 320 322 317 317 316 319 321 321 321 319
318 323 321 320 317 317 316 315 315 316 314 315 316 315 316 316 315 315 316 315 316 315 314 313 312 316 315 314 314 317 316 316 315 315 318 319 318 315 315 314 316 320 320 319 316
321 323 319 318 318 316 318 316 314 315 316 316 316 316 315 315 315 316 315 316 316 316 315 316 314 317 316 316 314 316 314 314 315 316 318 321 320 315 314 312 314 318 316 316 315
323 319 317 315 314 316 316 316 317 316 316 317 316 316 314 314 315 315 314 313 315 318 317 315 316 316 315 315 316 315 314 314 316 317 317 317 318 315 313 312 314 317 317 314 312
317 317 317 318 318 317 314 317 315 315 314 318 316 314 313 315 315 314 313 313 313 315 317 313 313 316 316 316 316 316 315 313 314 315 315 313 315 312 313 313 312 313 316 315 312
316 316 317 318 316 316 314 316 316 314 314 315 314 313 314 315 314 314 313 312 312 313 315 313 313 313 315 316 315 316 314 314 313 312 313 314 311 313 312 313 312 311 313 315 313
Wind_Speed
17 17 17 17 17 17 17 17 16 15 15 15 15 16 19 21 21 23 26 14 10 5 10 3 9 6 6 8 15 6 2 5 7 3 4 15 7 8 5 10 13 2 31 25 37
18 18 17 17 17 18 18 17 16 15 14 14 15 16 18 21 23 16 8 9 7 11 8 5 6 6 4 6 8 6 4 8 8 4 9 12 10 12 6 22 11 25 57 32 42
17 17 16 17 17 18 18 17 15 14 14 15 15 16 18 19 19 2 10 10 2 7 9 10 10 6 6 14 6 6 6 7 19 26 25 3 8 11 12 6 13 32 20 18 29
17 16 16 16 16 17 17 16 15 14 14 14 15 15 16 15 3 4 7 8 4 1 6 9 6 4 3 4 14 6 15 16 23 28 25 8 9 11 17 12 35 33 29 40 31
17 16 15 16 16 17 16 15 14 13 13 13 13 13 14 10 9 1 6 9 3 3 4 9 7 4 4 4 4 7 10 28 34 32 25 3 10 14 20 32 37 38 37 40 34
16 15 15 15 15 16 16 14 14 13 13 12 12 13 12 6 3 0 6 7 3 3 4 9 4 4 9 7 1 18 15 17 17 20 13 10 16 14 19 45 54 43 38 49 48
14 14 14 14 15 15 15 13 13 13 13 13 14 15 16 14 6 5 7 7 7 8 5 4 7 9 14 9 15 9 7 10 8 6 5 4 8 13 50 35 35 25 31 39 44
12 12 13 13 14 14 13 13 13 14 13 13 12 14 10 1 5 10 6 7 11 7 8 11 10 10 5 11 11 7 4 6 6 8 12 6 9 6 46 37 36 35 35 42 43
11 11 11 12 12 12 11 12 15 13 11 10 8 8 10 4 5 2 11 8 7 10 6 7 9 4 6 3 6 5 4 7 11 3 5 6 9 11 41 35 34 36 37 41 45
10 10 10 10 10 9 8 12 13 8 5 9 7 8 5 6 5 4 2 5 5 9 14 9 3 3 4 5 5 6 4 5 7 8 0 3 8 18 37 33 36 36 34 36 36
8 8 8 8 8 4 7 11 12 4 18 13 17 18 24 12 7 4 5 6 6 8 2 5 3 7 13 11 10 6 5 8 13 14 2 9 6 11 31 28 22 25 31 27 31
8 7 6 6 5 3 6 6 9 10 10 18 18 22 18 11 7 10 9 8 4 6 3 5 7 16 12 9 7 13 13 13 11 13 7 7 8 2 19 29 37 32 25 32 33
9 7 6 5 3 3 6 6 6 9 5 15 9 12 12 9 6 10 16 7 5 3 6 5 8 10 11 13 15 5 6 8 13 9 2 3 9 7 5 8 25 23 38 38 47
9 7 5 2 2 7 6 15 7 10 4 6 3 3 2 2 2 8 12 10 3 6 5 3 6 15 17 17 12 6 10 16 15 6 5 5 4 13 15 22 22 30 21 20 64
10 9 6 4 5 4 10 9 9 9 3 8 11 9 19 6 1 13 20 18 6 3 7 4 10 13 15 11 11 5 10 10 6 6 5 10 4 7 16 16 21 24 26 28 31
12 11 11 7 4 5 11 11 6 4 1 5 8 9 17 10 12 13 20 12 13 6 6 3 4 8 2 6 7 11 12 6 4 3 4 1 2 5 6 6 11 19 30 38 38
14 15 16 14 2 5 9 7 5 4 6 8 6 7 8 10 9 9 14 13 6 6 7 6 5 9 23 10 8 14 8 5 7 7 3 11 6 3 0 4 5 13 26 37 44
14 16 13 7 5 7 8 5 5 2 3 5 4 4 6 8 8 9 4 6 10 6 4 5 7 11 10 5 6 5 4 4 3 3 5 3 2 5 3 10 9 21 26 33 42
14 14 11 4 6 5 1 4 4 1 2 6 6 5 6 6 5 5 8 7 4 4 4 5 3 5 12 9 5 7 6 5 3 2 2 4 1 4 17 20 29 28 33 34 31
15 13 7 6 8 4 4 3 2 2 2 4 3 5 5 7 6 6 2 4 4 4 7 2 2 3 9 8 9 7 7 6 4 3 4 3 4 6 15 15 14 19 20 26 24
12 7 4 8 8 3 3 3 5 10 7 3 2 5 4 3 3 5 3 1 4 3 10 3 4 7 4 5 4 6 5 5 1 1 2 3 2 4 5 9 11 14 16 13 11
6 2 3 9 4 2 2 4 5 4 7 6 4 4 3 4 3 4 3 3 4 4 3 1 5 2 5 3 10 4 0 3 4 6 3 2 3 6 5 7 12 14 16 4 9
11 5 6 4 3 2 3 2 3 3 2 2 2 2 2 2 2 3 3 8 6 4 5 3 2 3 8 6 4 4 2 2 3 1 3 2 3 5 11 12 16 11 11 3 12
5 3 4 8 6 5 2 0 3 3 3 3 3 1 2 1 2 3 3 4 6 5 7 5 3 5 4 7 4 2 4 5 3 2 3 3 3 6 6 6 15 11 6 4 8
6 2 6 3 4 1 2 2 3 4 3 5 1 3 3 2 3 3 1 4 6 5 3 4 4 3 5 6 1 2 2 4 3 1 2 3 3 3 2 3 8 9 7 7 9
7 7 10 8 7 2 0 3 6 4 4 3 4 1 3 2 4 3 0 2 4 2 3 0 2 2 4 5 5 3 2 2 0 2 2 6 5 5 4 4 12 11 2 4 9
15 10 5 6 6 3 5 6 6 8 4 9 7 4 2 6 7 8 10 9 8 6 4 5 5 3 4 4 0 2 6 5 4 4 4 4 5 4 2 3 1 6 6 6 8
Wind_Direction
322 324 328 329 329 327 327 323 320 320 320 319 319 317 316 313 310 304 297 308 277 223 214 270 257 235 256 236 217 206 107 237 247 235 212 152 196 214 14 74 178 216 296 203 160
321 324 327 326 326 328 330 324 323 325 325 324 321 320 317 314 315 315 7 350 252 216 215 275 264 264 249 237 208 167 157 226 229 229 277 180 190 187 156 97 16 334 304 190 175
315 319 321 321 325 328 327 324 324 328 328 326 322 321 317 320 321 329 352 358 288 226 238 268 284 273 260 258 260 208 206 229 273 276 276 213 160 168 127 114 178 229 55 179 180
310 313 316 318 322 325 324 324 326 328 327 323 321 323 316 319 309 8 355 342 34 82 248 258 254 193 218 210 252 244 264 245 259 263 267 268 142 142 170 168 185 204 184 182 187
305 308 313 314 319 323 322 324 323 323 322 321 322 322 321 304 272 301 354 332 336 334 266 226 230 206 215 229 307 188 248 260 261 262 262 277 154 146 144 155 162 164 180 183 199
300 302 306 309 316 320 320 322 320 320 321 319 314 313 313 287 6 237 351 352 322 339 255 220 222 330 290 274 241 277 270 269 286 270 248 131 132 112 165 161 161 160 182 188 192
299 303 303 309 314 318 321 321 319 319 318 311 308 306 294 263 349 211 304 318 319 315 334 320 298 274 296 292 301 280 329 327 293 266 255 128 149 159 170 177 187 197 197 194 194
302 301 302 308 312 320 322 320 319 319 313 310 310 306 270 242 278 246 260 284 278 276 304 311 305 299 251 300 330 352 40 4 311 317 270 122 267 187 179 183 193 202 191 191 194
305 303 307 311 313 321 325 326 322 315 309 309 298 302 277 255 241 237 216 251 279 259 271 294 283 295 323 56 357 351 261 300 314 264 259 150 262 174 178 185 191 195 196 197 194
313 310 309 308 316 327 332 348 337 316 292 315 261 308 267 336 192 198 211 231 284 291 251 252 274 19 4 62 237 246 259 260 263 287 86 298 252 160 189 194 188 192 193 194 196
327 322 318 317 322 332 2 2 1 354 308 265 273 258 283 323 181 306 196 202 256 289 243 282 74 245 243 210 229 242 270 262 270 275 310 262 262 206 193 193 203 196 200 194 195
340 334 329 327 334 347 353 357 20 345 306 298 289 272 284 283 279 265 232 190 202 253 34 9 253 256 246 260 252 267 255 270 284 265 173 286 309 359 170 206 207 202 197 190 172
351 349 345 348 4 342 323 347 343 347 305 297 260 257 268 201 218 238 191 201 201 246 249 178 284 349 56 39 3 4 41 299 268 284 111 16 331 336 139 327 221 223 195 178 167
6 4 359 10 16 328 13 7 341 333 44 279 241 247 255 313 308 211 230 216 193 220 291 104 335 47 31 21 6 19 338 335 326 334 275 72 259 52 23 36 27 8 351 214 183
19 16 9 343 312 322 1 344 333 310 30 330 346 39 2 154 317 15 43 52 14 39 69 307 33 42 42 360 3 310 334 319 313 301 66 15 49 354 28 8 356 355 347 337 276
14 10 356 347 319 350 336 339 328 45 292 12 356 343 7 346 32 50 46 55 42 51 39 48 62 46 307 4 21 327 349 17 360 34 72 323 236 347 24 354 336 343 344 341 327
338 339 332 314 240 310 338 346 47 86 334 347 337 354 356 44 11 51 54 40 41 28 2 348 23 353 9 353 6 3 31 359 353 7 270 357 18 200 228 10 340 336 345 358 353
331 328 318 298 313 276 330 45 69 65 358 330 322 3 59 21 30 34 82 77 25 50 64 39 346 4 356 355 312 343 47 137 241 246 278 320 209 151 27 22 356 18 16 12 18
323 319 307 327 315 276 62 51 182 66 336 330 329 52 23 357 54 59 85 70 63 58 85 34 297 356 2 333 13 313 6 203 144 334 326 269 270 103 10 14 4 9 13 17 29
328 326 308 5 327 272 77 219 104 92 10 29 58 27 42 7 28 28 56 337 108 85 110 335 343 349 315 358 14 75 326 15 7 165 251 302 71 18 358 351 358 7 359 16 26
336 324 266 317 298 209 158 180 108 68 70 78 67 29 82 17 355 359 37 117 65 71 99 114 94 302 357 22 11 1 17 8 170 70 323 315 9 326 313 321 336 350 9 29 53
337 347 346 301 56 69 126 142 126 98 63 32 95 81 100 12 318 36 62 80 118 168 72 44 130 286 268 263 112 109 162 111 120 289 259 203 243 314 304 1 12 359 357 81 112
333 281 32 315 98 334 250 98 105 126 144 99 88 107 135 73 357 14 23 30 73 86 150 186 42 15 343 349 6 90 334 160 241 18 170 151 262 356 353 16 13 9 7 63 109
337 352 20 61 79 122 45 128 144 118 133 133 186 306 108 94 140 288 18 17 48 122 135 112 113 149 199 234 252 288 31 2 77 86 303 303 323 315 10 7 358 27 20 80 127
14 334 10 308 330 108 143 246 129 177 152 170 37 112 149 207 297 274 329 9 41 103 112 105 165 218 248 268 221 120 74 50 72 210 211 315 223 296 86 31 16 13 148 130 133
18 10 341 299 280 317 22 237 177 141 145 175 153 126 67 155 187 230 230 198 202 280 100 339 221 234 286 286 185 148 179 119 126 174 248 315 246 224 137 22 14 18 97 135 153
7 349 319 297 335 24 244 214 187 144 228 196 173 144 216 195 206 241 253 238 215 187 195 171 154 107 254 272 305 340 210 186 208 230 181 233 244 252 187 162 261 331 333 238 191